Wind_Speed
24 25 26 26 28 29 30 30 30 30 30 31 30 30 31 31 31 31 31 31 31 32 31 30 31 30 28 27 25 23 21 20 19 18 17 17 16 16 16 13 10 7 7
22 24 27 28 30 31 32 32 32 31 31 31 30 30 30 30 29 29 29 30 30 30 30 30 31 31 30 28 27 25 24 22 21 19 19 18 17 17 17 14 11 10 10
25 27 29 30 31 32 32 33 34 34 34 33 32 31 30 29 29 29 29 30 30 29 29 29 31 32 31 30 28 27 25 24 23 21 19 19 18 18 17 14 13 13 14
31 32 33 33 34 34 34 34 35 36 36 35 33 32 32 31 30 29 29 30 28 27 28 28 30 32 32 31 29 27 25 25 24 23 21 19 19 18 17 16 15 16 17
34 35 35 35 36 36 37 37 36 36 37 36 35 34 33 32 31 29 30 29 28 27 27 27 29 30 31 31 29 27 25 25 24 24 23 21 19 18 18 17 16 16 17
38 38 38 38 38 39 39 38 37 37 37 36 35 34 34 33 31 30 29 29 28 27 27 27 27 29 30 30 29 27 25 24 23 23 24 23 21 20 19 17 16 16 16
41 41 41 41 41 41 40 39 38 38 37 36 34 33 33 33 30 29 28 27 26 27 27 28 28 29 29 29 29 28 27 27 25 25 24 24 23 21 20 19 18 17 16
40 41 42 43 43 42 42 40 39 38 37 36 34 33 32 31 30 28 27 26 26 26 26 26 27 27 28 28 28 28 28 28 27 27 26 25 25 24 23 21 20 20 20
38 39 40 40 40 40 40 39 38 38 37 36 36 34 33 32 31 30 29 27 26 26 25 25 25 26 26 27 27 28 28 28 28 28 28 28 27 27 27 26 26 25 24
31 33 33 34 34 34 34 35 35 35 35 36 36 36 36 35 35 34 32 31 30 29 28 28 28 28 27 27 27 27 28 27 27 28 29 29 30 29 30 30 30 30 30
23 24 25 25 26 27 28 29 30 31 32 33 34 35 36 37 38 38 37 36 35 34 33 33 32 32 31 31 30 30 30 29 29 29 30 31 32 32 32 32 32 33 33
17 17 18 19 20 22 24 26 27 28 28 29 30 31 32 34 36 37 39 40 40 39 38 37 37 36 36 35 35 34 33 32 32 32 32 33 34 35 36 35 35 35 36
17 16 16 17 19 21 23 23 25 26 26 27 28 28 29 30 31 32 35 38 41 42 42 42 41 40 39 39 39 37 36 35 35 35 35 35 36 36 38 38 38 38 38
17 17 17 18 20 22 23 23 24 25 26 26 27 27 27 26 26 26 29 32 35 37 39 41 41 41 41 40 40 40 40 39 38 37 37 37 37 37 38 39 40 40 40
20 21 22 22 22 24 25 26 27 27 28 28 28 28 27 26 25 25 25 25 26 27 29 31 33 35 36 37 37 37 37 37 38 38 38 38 38 38 38 38 39 40 40
22 23 24 26 27 28 29 31 32 33 34 34 33 33 33 31 30 29 28 27 26 28 29 29 28 29 30 31 32 33 34 34 35 36 36 37 38 38 37 37 38 38 38
22 24 25 26 28 30 32 35 36 37 38 38 38 37 36 36 35 34 33 33 32 33 34 35 34 33 33 33 33 34 34 34 34 34 35 36 37 38 39 38 38 39 39
22 23 24 26 28 30 32 34 36 37 37 37 38 39 39 39 39 40 40 40 39 39 40 40 41 41 40 40 39 38 38 37 36 36 37 38 39 39 39 39 39 40 41
22 23 25 26 28 29 30 32 33 34 35 36 37 38 39 39 40 41 43 44 44 45 46 47 47 47 47 46 46 45 44 43 42 41 40 40 41 41 42 41 41 41 42
21 23 24 26 28 29 30 31 32 33 35 36 37 38 39 39 41 42 43 45 47 48 49 50 51 52 52 52 52 51 50 48 47 46 45 44 44 43 44 44 44 43 43
21 23 25 26 28 29 30 31 32 33 34 35 37 39 40 41 42 42 43 45 46 48 50 51 53 53 54 54 54 54 53 52 51 50 50 48 47 47 47 47 47 47 47
23 24 25 27 28 30 30 31 31 32 33 34 36 37 39 41 42 44 44 45 46 47 48 50 52 53 54 55 55 55 54 53 52 51 51 50 50 50 50 50 50 51 50
25 25 26 27 28 30 31 32 32 33 34 35 36 37 38 39 40 42 43 44 45 46 47 49 51 52 53 54 55 55 54 54 53 52 51 51 51 51 51 51 52 52 52
27 27 28 29 31 32 34 34 36 37 38 39 40 40 41 41 41 42 43 44 45 46 48 49 50 52 53 54 54 54 54 54 53 53 53 52 52 52 52 52 52 52 53
29 29 31 33 34 36 36 37 38 39 40 39 39 39 39 40 40 41 42 43 44 45 46 46 47 48 49 50 51 52 53 53 53 53 53 53 53 53 53 53 53 52 52
31 32 33 35 37 38 38 38 39 40 40 39 38 37 36 35 34 35 36 37 38 38 39 39 40 41 42 43 45 47 49 50 51 52 53 54 54 55 56 56 56 55 54
Wind_Direction
257 256 257 259 262 265 268 269 271 272 272 272 272 272 273 273 274 274 275 275 274 271 265 258 252 251 253 257 261 264 267 268 268 271 277 284 282 283 279 268 259 245 224
257 262 264 266 267 269 269 269 269 270 271 271 271 272 272 273 273 273 274 275 274 269 261 254 248 247 250 254 257 260 263 265 264 267 273 277 276 277 276 264 246 232 222
268 271 272 272 272 272 271 269 267 267 269 270 270 272 272 272 272 273 274 274 271 265 258 252 246 245 248 252 256 259 260 261 260 262 265 268 269 269 265 258 243 232 226
272 273 273 273 273 273 272 271 269 267 268 270 270 271 271 271 272 272 273 272 268 263 257 250 246 245 248 250 253 256 256 256 257 257 257 260 262 261 254 255 242 234 229
272 272 272 271 271 272 272 271 270 269 269 269 269 269 269 270 270 271 272 269 263 259 255 249 245 244 247 249 251 251 252 253 254 253 252 252 255 256 250 249 242 238 237
270 270 270 269 269 270 270 270 268 267 267 267 266 265 266 267 267 269 270 265 260 255 251 247 243 242 243 246 247 246 248 251 251 248 246 246 250 252 248 243 241 243 246
266 266 266 266 266 266 266 266 265 263 264 264 263 263 263 263 263 265 265 262 258 254 250 247 245 244 243 245 245 246 248 249 247 246 245 245 247 249 247 241 238 236 243
264 263 262 262 262 262 262 263 262 261 260 260 260 260 261 261 260 260 259 256 254 251 249 247 247 246 245 245 246 248 249 247 245 244 244 245 246 247 246 244 242 242 245
263 262 262 262 262 262 262 262 260 260 259 259 258 258 259 259 258 257 255 253 252 250 248 246 246 246 245 245 246 247 248 247 245 243 243 243 244 244 244 244 245 246 249
265 263 262 262 262 262 263 263 262 262 261 260 260 258 257 256 256 256 255 254 253 251 249 248 246 245 245 245 246 246 247 246 246 246 246 246 244 243 243 243 245 247 249
271 268 265 262 261 260 259 260 262 262 262 262 262 261 258 256 255 255 254 255 254 252 251 250 249 249 247 247 248 247 247 247 248 249 250 250 248 246 244 244 245 247 250
276 272 267 264 260 256 257 259 261 260 258 258 257 258 258 256 255 256 256 255 254 253 252 251 250 250 251 250 250 251 251 251 252 253 253 253 252 250 248 247 247 248 250
271 268 265 261 256 255 257 259 260 261 262 263 263 262 260 260 260 261 259 258 256 255 253 252 251 251 252 252 252 254 255 257 257 257 256 256 255 253 251 249 249 249 250
262 260 258 258 258 259 260 262 266 269 271 273 273 272 270 268 266 264 263 261 259 258 257 256 254 252 253 254 255 257 259 260 260 259 258 257 256 255 253 252 251 250 251
267 266 263 262 264 263 262 263 265 268 271 273 272 271 270 269 267 266 263 262 264 263 261 260 260 258 257 258 259 260 261 261 261 260 258 256 255 254 254 253 252 252 252
281 278 275 271 267 264 263 261 261 263 266 268 267 266 266 266 265 264 261 259 259 263 265 266 267 267 266 264 263 263 262 262 262 261 259 257 255 254 252 251 252 252 252
287 285 282 278 274 269 267 266 265 264 264 264 264 263 262 262 260 259 257 255 256 258 261 264 267 268 269 269 270 269 267 265 263 262 260 259 258 256 254 252 251 251 252
291 290 288 285 282 279 276 273 271 271 269 267 266 265 263 262 260 258 256 255 255 255 257 261 264 266 267 269 270 271 270 270 268 266 264 262 260 258 257 255 254 253 252
296 294 292 290 288 286 284 282 280 278 277 275 273 271 268 265 263 261 258 258 257 256 256 258 260 262 264 265 267 268 268 269 269 268 267 266 264 262 261 259 257 255 254
299 296 294 292 290 288 287 286 284 283 281 279 278 276 273 270 266 263 260 259 259 258 258 258 259 259 260 262 263 265 266 266 267 267 266 265 264 264 263 261 258 256 255
306 304 301 298 296 294 292 291 289 287 285 282 280 278 276 273 270 267 264 261 259 258 258 258 258 258 259 260 261 262 263 263 264 264 263 262 261 260 260 259 258 257 256
312 310 307 303 300 298 297 296 295 293 291 287 283 279 276 274 271 269 268 266 264 262 260 259 259 258 258 259 259 259 260 260 260 260 260 259 258 258 257 257 256 256 256
312 310 308 304 301 300 300 300 301 301 300 298 293 288 282 277 272 270 268 266 266 265 265 264 263 261 260 260 259 259 259 258 258 257 257 257 257 257 257 256 256 255 255
311 309 308 306 304 303 302 302 301 302 301 300 298 294 289 284 279 274 270 267 266 266 267 267 266 265 263 261 260 259 258 258 258 257 256 256 256 256 256 256 256 255 255
313 311 310 309 308 306 305 303 303 303 303 302 300 297 293 288 283 279 275 273 271 270 270 269 267 266 264 262 260 258 258 257 257 257 257 257 257 256 256 256 256 256 256
316 313 312 311 310 309 308 308 308 308 309 308 307 304 300 294 289 284 280 276 274 272 271 268 267 265 264 262 260 258 258 258 258 258 258 258 258 257 256 256 255 255 255
Height
5797 5799 5800 5801 5802 5802 5802 5802 5801 5801 5801 5802 5802 5802 5802 5802 5802 5802 5801 5801 5801 5801 5802 5803 5805 5807 5808 5809 5810 5810 5810 5810 5810 5810 5810 5810 5810 5810 5810 5809 5809 5809 5809
5791 5792 5793 5793 5793 5793 5793 5793 5793 5793 5793 5794 5794 5794 5794 5793 5793 5793 5792 5792 5792 5792 5793 5795 5797 5799 5801 5802 5803 5803 5804 5804 5805 5805 5805 5806 5806 5806 5806 5806 5806 5806 5807
5784 5784 5785 5785 5784 5784 5783 5783 5783 5784 5785 5785 5785 5785 5785 5785 5785 5784 5784 5783 5783 5784 5785 5787 5789 5791 5793 5794 5795 5796 5797 5798 5799 5800 5800 5801 5801 5802 5802 5802 5803 5803 5804
5776 5776 5776 5775 5775 5774 5774 5773 5773 5774 5775 5775 5775 5776 5776 5776 5776 5776 5775 5775 5775 5776 5777 5779 5781 5783 5785 5787 5788 5789 5790 5791 5793 5794 5795 5796 5796 5797 5797 5798 5799 5800 5801
5766 5766 5765 5765 5764 5764 5764 5763 5763 5764 5765 5765 5766 5766 5767 5767 5767 5767 5767 5767 5767 5768 5769 5771 5773 5775 5778 5780 5781 5783 5784 5785 5786 5787 5789 5790 5791 5791 5792 5793 5794 5795 5796
5755 5755 5754 5754 5754 5753 5753 5753 5753 5754 5755 5755 5756 5757 5757 5758 5758 5758 5759 5759 5760 5761 5762 5763 5765 5767 5770 5772 5774 5776 5777 5778 5780 5781 5782 5784 5785 5786 5787 5788 5789 5791 5792
5742 5742 5742 5742 5742 5742 5742 5743 5743 5744 5745 5746 5747 5748 5748 5749 5750 5750 5751 5752 5752 5754 5755 5757 5758 5760 5762 5764 5766 5768 5770 5772 5773 5775 5776 5777 5779 5781 5782 5783 5785 5786 5787
5729 5729 5729 5729 5730 5730 5730 5731 5733 5734 5735 5736 5738 5739 5740 5741 5741 5742 5743 5744 5745 5747 5748 5750 5751 5753 5755 5757 5759 5761 5762 5764 5766 5768 5770 5771 5773 5774 5776 5777 5779 5781 5782
5716 5716 5716 5717 5718 5718 5719 5720 5722 5723 5724 5726 5728 5729 5731 5732 5733 5734 5735 5737 5738 5740 5741 5743 5744 5746 5748 5749 5751 5753 5754 5756 5758 5760 5762 5764 5765 5767 5769 5771 5772 5774 5776
5704 5705 5705 5706 5707 5708 5709 5710 5712 5713 5714 5716 5718 5719 5721 5722 5724 5725 5727 5728 5730 5732 5734 5736 5737 5739 5741 5742 5744 5745 5747 5748 5750 5752 5754 5756 5758 5759 5761 5763 5765 5767 5769
5696 5696 5697 5698 5699 5700 5701 5702 5703 5704 5705 5706 5708 5709 5710 5712 5714 5715 5717 5719 5721 5723 5725 5727 5729 5731 5733 5735 5737 5738 5739 5741 5742 5744 5745 5747 5749 5751 5753 5754 5756 5758 5760
5691 5691 5691 5692 5692 5693 5694 5695 5696 5697 5697 5698 5699 5700 5701 5702 5704 5705 5706 5708 5711 5713 5715 5717 5719 5722 5724 5726 5728 5729 5731 5732 5734 5735 5736 5738 5739 5741 5743 5745 5747 5748 5750
5686 5686 5687 5687 5688 5688 5689 5689 5689 5690 5690 5690 5691 5692 5693 5694 5695 5696 5697 5698 5700 5702 5704 5706 5709 5711 5713 5716 5718 5720 5721 5723 5724 5726 5727 5728 5730 5731 5733 5735 5737 5738 5740
5682 5682 5683 5683 5683 5684 5683 5683 5683 5683 5683 5684 5684 5684 5685 5686 5687 5687 5688 5689 5690 5692 5694 5696 5698 5700 5702 5704 5706 5709 5710 5712 5714 5715 5717 5718 5719 5721 5723 5725 5726 5728 5730
5678 5678 5678 5678 5678 5678 5677 5677 5676 5676 5676 5677 5677 5677 5678 5679 5679 5680 5680 5681 5682 5683 5684 5685 5687 5689 5691 5693 5695 5696 5698 5700 5702 5704 5706 5707 5708 5710 5712 5714 5716 5718 5720
5673 5672 5672 5671 5671 5671 5670 5670 5669 5668 5668 5668 5668 5669 5669 5670 5671 5672 5673 5674 5675 5675 5676 5677 5678 5679 5681 5682 5684 5685 5686 5688 5690 5692 5694 5695 5697 5699 5701 5703 5705 5707 5710
5666 5665 5664 5663 5662 5662 5662 5661 5661 5660 5659 5658 5658 5658 5659 5660 5661 5662 5663 5665 5666 5666 5667 5667 5668 5669 5671 5672 5673 5674 5676 5677 5679 5681 5683 5684 5685 5687 5689 5691 5694 5696 5698
5660 5658 5656 5655 5654 5653 5652 5651 5650 5649 5648 5647 5647 5647 5647 5648 5649 5650 5651 5653 5654 5655 5656 5657 5657 5658 5659 5660 5661 5663 5664 5665 5667 5669 5671 5672 5673 5675 5676 5679 5681 5683 5685
5653 5651 5649 5647 5645 5643 5642 5640 5638 5637 5636 5635 5634 5634 5634 5635 5635 5636 5637 5638 5640 5641 5642 5643 5644 5645 5646 5647 5648 5650 5651 5653 5654 5656 5658 5659 5661 5662 5664 5666 5668 5670 5672
5646 5643 5641 5639 5637 5634 5632 5630 5628 5626 5624 5622 5621 5620 5620 5620 5621 5621 5622 5623 5624 5625 5626 5627 5629 5630 5631 5632 5633 5635 5637 5638 5640 5641 5643 5645 5647 5649 5651 5652 5654 5656 5658
5639 5636 5633 5630 5628 5625 5622 5620 5617 5615 5612 5610 5608 5607 5606 5605 5605 5605 5606 5607 5608 5608 5609 5610 5611 5612 5613 5614 5616 5618 5620 5621 5623 5625 5627 5629 5631 5634 5636 5638 5640 5641 5644
5631 5628 5625 5622 5619 5615 5612 5610 5607 5604 5601 5598 5596 5593 5591 5590 5589 5589 5589 5590 5590 5591 5591 5592 5592 5593 5595 5596 5597 5599 5601 5603 5605 5608 5610 5612 5615 5617 5620 5622 5624 5626 5628
5624 5620 5617 5614 5610 5607 5603 5599 5596 5592 5588 5585 5582 5579 5577 5575 5574 5573 5572 5572 5572 5572 5573 5573 5574 5574 5576 5577 5579 5580 5582 5584 5587 5590 5592 5595 5597 5600 5602 5605 5608 5610 5612
5616 5613 5610 5606 5602 5598 5594 5589 5585 5581 5577 5572 5568 5564 5561 5559 5557 5556 5555 5555 5555 5555 5555 5555 5555 5555 5557 5558 5560 5561 5563 5566 5568 5571 5574 5576 5579 5581 5584 5587 5590 5592 5595
5609 5606 5602 5597 5593 5589 5584 5580 5575 5570 5565 5559 5554 5550 5546 5542 5540 5539 5538 5538 5537 5537 5537 5537 5537 5537 5538 5539 5541 5543 5545 5547 5550 5552 5555 5558 5560 5563 5566 5568 5571 5574 5577
5602 5598 5593 5589 5584 5579 5574 5569 5564 5558 5552 5546 5541 5535 5531 5528 5525 5523 5522 5521 5521 5520 5520 5520 5520 5521 5521 5522 5524 5525 5527 5529 5532 5534 5536 5538 5541 5543 5546 5549 5552 5555 5557